START_TIME,STEP,MOV.,H8,t_acc.,H43,t_acc.,M25,t_acc.,H9,t_acc.
1986-01-25 18:00:30.870 ,6,0,0.,12.0,0.,12.0,0.,12.0,0.,12.0
1986-01-25 18:00:42.870 ,6,0,0.,12.0,0.,12.0,0.,12.0,0.,12.0
1986-01-25 18:00:54.870 ,5,0,0.,12.0,0.,12.0,0.,12.0,0.,12.0
1986-01-25 18:01:06.870 ,5,0,0.,12.0,0.,12.0,0.,12.0,0.,12.0
1986-01-25 18:01:18.870 ,5,0,0.,12.0,0.,12.0,0.,12.0,0.,12.0
1986-01-25 18:01:30.870 ,5,0,0.,12.0,0.,12.0,0.,12.0,0.,12.0
1986-01-25 18:01:42.870 ,4,0,0.,12.0,0.,12.0,0.,12.0,0.,12.0
1986-01-25 18:01:54.870 ,4,0,0.,12.0,0.,12.0,0.,12.0,0.,12.0
1986-01-25 18:02:06.870 ,4,0,0.,12.0,0.,12.0,0.,12.0,0.,12.0
1986-01-25 18:02:18.870 ,4,0,0.,12.0,0.,12.0,0.,12.0,0.,12.0
1986-01-25 18:02:30.870 ,3,0,0.,12.0,0.,12.0,0.,12.0,0.,12.0
1986-01-25 18:02:42.870 ,3,0,0.,12.0,0.,12.0,0.,12.0,0.,12.0
1986-01-25 18:02:54.870 ,3,0,0.,12.0,0.,12.0,0.,12.0,0.,12.0
1986-01-25 18:03:06.870 ,3,0,0.,12.0,0.,12.0,0.,12.0,0.,12.0
1986-01-25 18:03:18.870 ,2,0,0.,12.0,0.,12.0,0.,12.0,0.,12.0
1986-01-25 18:03:30.870 ,2,0,0.,12.0,0.,12.0,0.,12.0,0.,12.0
1986-01-25 18:03:42.870 ,2,0,0.,12.0,0.,12.0,0.,12.0,0.,12.0
1986-01-25 18:03:54.870 ,2,0,0.,12.0,0.,12.0,0.,12.0,0.,12.0
1986-01-25 18:04:06.870 ,1,0,0.,12.0,0.,12.0,0.,12.0,0.,12.0
1986-01-25 18:04:18.870 ,1,0,0.,12.0,0.,12.0,0.,12.0,0.,12.0
1986-01-25 18:04:30.870 ,1,0,0.,12.0,0.,12.0,0.,12.0,0.,12.0
1986-01-25 18:04:42.870 ,1,0,0.,12.0,0.,12.0,0.,12.0,0.,12.0
1986-01-25 18:04:54.870 ,0,0,0.,12.0,0.,12.0,0.,12.0,0.,12.0
1986-01-25 18:05:06.870 ,0,0,0.,12.0,0.,12.0,0.,12.0,0.,12.0
1986-01-25 18:05:18.870 ,0,0,0.,12.0,0.,12.0,0.,12.0,0.,12.0
1986-01-25 18:05:30.870 ,0,0,0.,12.0,0.,12.0,0.,12.0,0.,12.0
1986-01-25 18:05:42.870 ,0,0,0.,12.0,0.,12.0,0.,12.0,0.,12.0
1986-01-25 18:05:54.870 ,0,0,0.,12.0,0.,12.0,0.,12.0,0.,12.0
1986-01-25 18:06:06.870 ,0,0,0.,12.0,0.,12.0,0.,12.0,0.,12.0
1986-01-25 18:06:18.870 ,0,0,0.,12.0,0.,12.0,0.,12.0,0.,12.0
1986-01-25 18:06:30.870 ,1,0,0.,12.0,0.,12.0,0.,12.0,0.,12.0
1986-01-25 18:06:42.870 ,1,0,0.,12.0,0.,12.0,0.,12.0,0.,12.0
1986-01-25 18:06:54.870 ,1,0,0.,12.0,0.,12.0,0.,12.0,0.,12.0
1986-01-25 18:07:06.870 ,1,0,0.,12.0,0.,12.0,0.,12.0,0.,12.0
1986-01-25 18:07:18.870 ,2,0,0.,12.0,0.,12.0,0.,12.0,0.,12.0
1986-01-25 18:07:30.870 ,2,0,0.,12.0,0.,12.0,0.,12.0,0.,12.0
1986-01-25 18:07:42.870 ,2,0,0.,12.0,0.,12.0,0.,12.0,0.,12.0
1986-01-25 18:07:54.870 ,2,0,0.,12.0,0.,12.0,0.,12.0,0.,12.0
1986-01-25 18:08:06.870 ,3,0,0.,12.0,0.,12.0,0.,12.0,0.,12.0
1986-01-25 18:08:18.870 ,3,0,0.,12.0,0.,12.0,0.,12.0,0.,12.0
1986-01-25 18:08:30.870 ,3,0,0.,12.0,0.,12.0,0.,12.0,0.,12.0
1986-01-25 18:08:42.870 ,3,0,0.,12.0,0.,12.0,0.,12.0,0.,12.0
1986-01-25 18:08:54.870 ,4,0,0.,12.0,0.,12.0,0.,12.0,0.,12.0
1986-01-25 18:09:06.870 ,4,0,0.,12.0,0.,12.0,0.,12.0,0.,12.0
1986-01-25 18:09:18.870 ,4,0,0.,12.0,0.,12.0,0.,12.0,0.,12.0
1986-01-25 18:09:30.870 ,4,0,0.,12.0,0.,12.0,0.,12.0,0.,12.0
1986-01-25 18:09:42.870 ,5,0,0.,12.0,0.,12.0,0.,12.0,0.,12.0
1986-01-25 18:09:54.870 ,5,0,0.,12.0,0.,12.0,0.,12.0,0.,12.0
1986-01-25 18:10:06.870 ,5,0,0.,12.0,0.,12.0,0.,12.0,0.,12.0
1986-01-25 18:10:18.870 ,5,0,0.,12.0,0.,12.0,0.,12.0,0.,12.0
1986-01-25 18:10:30.870 ,6,0,0.,12.0,0.,12.0,0.,12.0,0.,12.0
1986-01-25 18:10:42.870 ,6,0,0.,12.0,0.,12.0,0.,12.0,0.,12.0
1986-01-25 18:10:54.870 ,6,0,0.,12.0,0.,12.0,0.,12.0,0.,12.0
1986-01-25 18:11:06.870 ,6,0,0.,12.0,0.,12.0,0.,12.0,0.,12.0
1986-01-25 18:11:18.870 ,7,0,0.,12.0,0.,12.0,0.,12.0,0.,12.0
1986-01-25 18:11:30.870 ,7,0,0.,12.0,0.,12.0,0.,12.0,0.,12.0
1986-01-25 18:11:42.870 ,7,0,0.,12.0,0.,12.0,0.,12.0,0.,12.0
1986-01-25 18:11:54.870 ,7,0,0.,12.0,0.,12.0,0.,12.0,0.,12.0
1986-01-25 18:12:06.870 ,7,0,0.,12.0,0.,12.0,0.,12.0,0.,12.0
1986-01-25 18:12:18.870 ,7,0,0.,12.0,0.,12.0,0.,12.0,0.,12.0
1986-01-25 18:12:30.870 ,7,0,0.,12.0,0.,12.0,0.,12.0,0.,12.0
1986-01-25 18:12:42.870 ,7,0,0.,12.0,0.,12.0,0.,12.0,0.,12.0
1986-01-25 18:12:54.870 ,6,0,0.,12.0,0.,12.0,0.,12.0,0.,12.0
1986-01-25 18:13:06.870 ,6,0,0.,12.0,0.,12.0,0.,12.0,0.,12.0
1986-01-25 18:13:18.870 ,6,0,0.,12.0,0.,12.0,0.,12.0,0.,12.0
1986-01-25 18:13:30.870 ,6,0,0.,12.0,0.,12.0,0.,12.0,0.,12.0
1986-01-25 18:13:42.870 ,5,0,0.,12.0,0.,12.0,0.,12.0,0.,12.0
1986-01-25 18:13:54.870 ,5,0,0.,12.0,0.,12.0,0.,12.0,0.,12.0
1986-01-25 18:14:06.870 ,5,0,0.,12.0,0.,12.0,0.,12.0,0.,12.0
1986-01-25 18:14:18.870 ,5,0,0.,12.0,0.,12.0,0.,12.0,0.,12.0
1986-01-25 18:14:30.870 ,4,0,0.,12.0,0.,12.0,0.,12.0,0.,12.0
1986-01-25 18:14:42.870 ,4,0,0.,12.0,0.,12.0,0.,12.0,0.,12.0
1986-01-25 18:14:54.870 ,4,0,0.,12.0,0.,12.0,0.,12.0,0.,12.0
1986-01-25 18:15:06.870 ,4,0,0.,12.0,0.,12.0,0.,12.0,0.,12.0
1986-01-25 18:15:18.870 ,3,0,1.,12.0,0.,12.0,0.,12.0,0.,12.0
1986-01-25 18:15:30.870 ,3,0,0.,12.0,0.,12.0,0.,12.0,0.,12.0
1986-01-25 18:15:42.870 ,3,0,0.,12.0,0.,12.0,0.,12.0,0.,12.0
1986-01-25 18:15:54.870 ,3,0,0.,12.0,0.,12.0,0.,12.0,0.,12.0
1986-01-25 18:16:06.870 ,2,0,0.,12.0,0.,12.0,0.,12.0,0.,12.0
1986-01-25 18:16:18.870 ,2,0,0.,12.0,0.,12.0,0.,12.0,0.,12.0
1986-01-25 18:16:30.870 ,2,0,0.,12.0,0.,12.0,0.,12.0,0.,12.0
1986-01-25 18:16:42.870 ,2,0,0.,12.0,0.,12.0,0.,12.0,0.,12.0
1986-01-25 18:16:54.870 ,1,0,0.,12.0,0.,12.0,0.,12.0,0.,12.0
1986-01-25 18:17:06.870 ,1,0,0.,12.0,0.,12.0,0.,12.0,0.,12.0
1986-01-25 18:17:18.870 ,1,0,0.,12.0,0.,12.0,0.,12.0,0.,12.0
1986-01-25 18:17:30.870 ,1,0,0.,12.0,0.,12.0,0.,12.0,0.,12.0
1986-01-25 18:17:42.870 ,0,0,0.,12.0,0.,12.0,0.,12.0,0.,12.0
1986-01-25 18:17:54.870 ,0,0,0.,12.0,0.,12.0,0.,12.0,0.,12.0
1986-01-25 18:18:06.870 ,0,0,0.,12.0,0.,12.0,0.,12.0,0.,12.0
1986-01-25 18:18:18.870 ,0,0,0.,12.0,0.,12.0,0.,12.0,0.,12.0
1986-01-25 18:18:30.860 ,0,0,0.,12.0,0.,12.0,0.,12.0,0.,12.0
1986-01-25 18:18:42.860 ,0,0,0.,12.0,0.,12.0,0.,12.0,0.,12.0
1986-01-25 18:18:54.860 ,0,0,0.,12.0,0.,12.0,0.,12.0,0.,12.0
1986-01-25 18:19:06.860 ,0,0,0.,12.0,0.,12.0,0.,12.0,0.,12.0
1986-01-25 18:19:18.860 ,1,0,0.,12.0,0.,12.0,0.,12.0,0.,12.0
1986-01-25 18:19:30.860 ,1,0,0.,12.0,0.,12.0,0.,12.0,0.,12.0
1986-01-25 18:19:42.860 ,1,0,0.,12.0,0.,12.0,0.,12.0,0.,12.0
1986-01-25 18:19:54.860 ,1,0,0.,12.0,0.,12.0,0.,12.0,0.,12.0
1986-01-25 18:20:06.860 ,2,0,0.,12.0,0.,12.0,0.,12.0,0.,12.0
1986-01-25 18:20:18.860 ,2,0,0.,12.0,0.,12.0,0.,12.0,0.,12.0
1986-01-25 18:20:30.860 ,2,0,0.,12.0,0.,12.0,0.,12.0,0.,12.0
1986-01-25 18:20:42.860 ,2,0,0.,12.0,0.,12.0,0.,12.0,0.,12.0
1986-01-25 18:20:54.860 ,3,0,0.,12.0,0.,12.0,0.,12.0,0.,12.0
1986-01-25 18:21:06.860 ,3,0,0.,12.0,0.,12.0,0.,12.0,0.,12.0
1986-01-25 18:21:18.860 ,3,0,0.,12.0,0.,12.0,0.,12.0,0.,12.0
1986-01-25 18:21:30.860 ,3,0,0.,12.0,0.,12.0,0.,12.0,0.,12.0
1986-01-25 18:21:42.860 ,4,0,0.,12.0,0.,12.0,0.,12.0,0.,12.0
1986-01-25 18:21:54.860 ,4,0,0.,12.0,0.,12.0,0.,12.0,0.,12.0
1986-01-25 18:22:06.860 ,4,0,0.,12.0,0.,12.0,0.,12.0,0.,12.0
1986-01-25 18:22:18.860 ,4,0,0.,12.0,0.,12.0,0.,12.0,0.,12.0
1986-01-25 18:22:30.860 ,5,0,0.,12.0,0.,12.0,0.,12.0,0.,12.0
1986-01-25 18:22:42.860 ,5,0,0.,12.0,0.,12.0,0.,12.0,0.,12.0
1986-01-25 18:22:54.860 ,5,0,0.,12.0,0.,12.0,0.,12.0,0.,12.0
1986-01-25 18:23:06.860 ,5,0,0.,12.0,0.,12.0,0.,12.0,0.,12.0
1986-01-25 18:23:18.860 ,6,0,0.,12.0,0.,12.0,0.,12.0,0.,12.0
1986-01-25 18:23:30.860 ,6,0,0.,12.0,0.,12.0,0.,12.0,0.,12.0
1986-01-25 18:23:42.860 ,6,0,0.,12.0,0.,12.0,0.,12.0,0.,12.0
1986-01-25 18:23:54.860 ,6,0,0.,12.0,0.,12.0,0.,12.0,0.,12.0
1986-01-25 18:24:06.860 ,7,0,0.,12.0,0.,12.0,0.,12.0,0.,12.0
1986-01-25 18:24:18.860 ,7,0,0.,12.0,0.,12.0,0.,12.0,0.,12.0
1986-01-25 18:24:30.860 ,7,0,0.,12.0,0.,12.0,0.,12.0,0.,12.0
1986-01-25 18:24:42.860 ,7,0,0.,12.0,0.,12.0,0.,12.0,0.,12.0
1986-01-25 18:24:54.860 ,7,0,0.,12.0,0.,12.0,0.,12.0,0.,12.0
1986-01-25 18:25:06.860 ,7,0,0.,12.0,0.,12.0,0.,12.0,0.,12.0
1986-01-25 18:25:18.860 ,7,0,0.,12.0,0.,12.0,0.,12.0,0.,12.0
1986-01-25 18:25:30.860 ,7,0,0.,12.0,0.,12.0,0.,12.0,0.,12.0
1986-01-25 18:25:42.860 ,6,0,0.,12.0,0.,12.0,0.,12.0,0.,12.0
1986-01-25 18:25:54.860 ,6,0,0.,12.0,0.,12.0,0.,12.0,0.,12.0
1986-01-25 18:26:06.860 ,6,0,0.,12.0,0.,12.0,0.,12.0,0.,12.0
1986-01-25 18:26:18.860 ,6,0,0.,12.0,0.,12.0,0.,12.0,0.,12.0
1986-01-25 18:26:30.860 ,5,0,0.,12.0,0.,12.0,0.,12.0,0.,12.0
1986-01-25 18:26:42.860 ,5,0,0.,12.0,0.,12.0,0.,12.0,0.,12.0
1986-01-25 18:26:54.860 ,5,0,0.,12.0,0.,12.0,0.,12.0,0.,12.0
1986-01-25 18:27:06.860 ,5,0,0.,12.0,0.,12.0,0.,12.0,0.,12.0
1986-01-25 18:27:18.860 ,4,0,0.,12.0,0.,12.0,0.,12.0,0.,12.0
1986-01-25 18:27:30.860 ,4,0,0.,12.0,0.,12.0,0.,12.0,0.,12.0
1986-01-25 18:27:42.860 ,4,0,0.,12.0,0.,12.0,0.,12.0,0.,12.0
1986-01-25 18:27:54.860 ,4,0,0.,12.0,0.,12.0,0.,12.0,0.,12.0
1986-01-25 18:28:06.860 ,3,0,0.,12.0,0.,12.0,0.,12.0,0.,12.0
1986-01-25 18:28:18.860 ,3,0,0.,12.0,0.,12.0,0.,12.0,0.,12.0
1986-01-25 18:28:30.860 ,3,0,0.,12.0,0.,12.0,0.,12.0,0.,12.0
1986-01-25 18:28:42.860 ,3,0,0.,12.0,0.,12.0,0.,12.0,0.,12.0
1986-01-25 18:28:54.860 ,2,0,0.,12.0,0.,12.0,0.,12.0,0.,12.0
1986-01-25 18:29:06.860 ,2,0,0.,12.0,0.,12.0,0.,12.0,0.,12.0
1986-01-25 18:29:18.860 ,2,0,0.,12.0,0.,12.0,0.,12.0,0.,12.0
1986-01-25 18:29:30.860 ,2,0,0.,12.0,0.,12.0,0.,12.0,0.,12.0
1986-01-25 18:29:42.860 ,1,0,0.,12.0,0.,12.0,0.,12.0,0.,12.0
1986-01-25 18:29:54.860 ,1,0,0.,12.0,0.,12.0,0.,12.0,0.,12.0
1986-01-25 18:30:06.860 ,1,0,0.,12.0,0.,12.0,0.,12.0,0.,12.0
1986-01-25 18:30:18.860 ,1,0,0.,12.0,0.,12.0,0.,12.0,0.,12.0
1986-01-25 18:30:30.860 ,0,0,0.,12.0,0.,12.0,0.,12.0,0.,12.0
1986-01-25 18:30:42.860 ,0,0,0.,12.0,0.,12.0,0.,12.0,0.,12.0
1986-01-25 18:30:54.860 ,0,0,0.,12.0,0.,12.0,0.,12.0,0.,12.0
1986-01-25 18:31:06.860 ,0,0,0.,12.0,0.,12.0,0.,12.0,0.,12.0
1986-01-25 18:31:18.860 ,0,0,0.,12.0,0.,12.0,0.,12.0,0.,12.0
1986-01-25 18:31:30.860 ,0,0,0.,12.0,0.,12.0,0.,12.0,0.,12.0
1986-01-25 18:31:42.860 ,0,0,0.,12.0,0.,12.0,0.,12.0,0.,12.0
1986-01-25 18:31:54.860 ,0,0,0.,12.0,0.,12.0,0.,12.0,0.,12.0
1986-01-25 18:32:06.860 ,1,0,0.,12.0,0.,12.0,0.,12.0,0.,12.0
1986-01-25 18:32:18.860 ,1,0,0.,12.0,0.,12.0,0.,12.0,0.,12.0
1986-01-25 18:32:30.860 ,1,0,0.,12.0,0.,12.0,0.,12.0,0.,12.0
1986-01-25 18:32:42.860 ,1,0,0.,12.0,0.,12.0,0.,12.0,0.,12.0
1986-01-25 18:32:54.860 ,2,0,0.,12.0,1.,12.0,0.,12.0,0.,12.0
1986-01-25 18:33:06.860 ,2,0,0.,12.0,0.,12.0,0.,12.0,0.,12.0
1986-01-25 18:33:18.860 ,2,0,0.,12.0,0.,12.0,0.,12.0,0.,12.0
1986-01-25 18:33:30.860 ,2,0,0.,12.0,0.,12.0,0.,12.0,0.,12.0
1986-01-25 18:33:42.860 ,3,0,0.,12.0,0.,12.0,0.,12.0,0.,12.0
1986-01-25 18:33:54.860 ,3,0,0.,12.0,0.,12.0,0.,12.0,0.,12.0
1986-01-25 18:34:06.860 ,3,0,0.,12.0,0.,12.0,0.,12.0,0.,12.0
1986-01-25 18:34:18.860 ,3,0,0.,12.0,0.,12.0,0.,12.0,0.,12.0
1986-01-25 18:34:30.860 ,4,0,0.,12.0,0.,12.0,0.,12.0,0.,12.0
1986-01-25 18:34:42.860 ,4,0,0.,12.0,0.,12.0,0.,12.0,0.,12.0
1986-01-25 18:34:54.860 ,4,0,0.,12.0,0.,12.0,0.,12.0,0.,12.0
1986-01-25 18:35:06.860 ,4,0,0.,12.0,0.,12.0,0.,12.0,0.,12.0
1986-01-25 18:35:18.860 ,5,0,0.,12.0,0.,12.0,0.,12.0,0.,12.0
1986-01-25 18:35:30.860 ,5,0,0.,12.0,0.,12.0,0.,12.0,0.,12.0
1986-01-25 18:35:42.860 ,5,0,0.,12.0,0.,12.0,0.,12.0,0.,12.0
1986-01-25 18:35:54.860 ,5,0,0.,12.0,0.,12.0,0.,12.0,0.,12.0
1986-01-25 18:36:06.860 ,6,0,0.,12.0,0.,12.0,0.,12.0,0.,12.0
1986-01-25 18:36:18.860 ,6,0,0.,12.0,0.,12.0,0.,12.0,0.,12.0
1986-01-25 18:36:30.860 ,6,0,0.,12.0,0.,12.0,0.,12.0,0.,12.0
1986-01-25 18:36:42.860 ,6,0,0.,12.0,0.,12.0,0.,12.0,0.,12.0
1986-01-25 18:36:54.860 ,7,0,0.,12.0,0.,12.0,0.,12.0,0.,12.0
1986-01-25 18:37:06.860 ,7,0,0.,12.0,0.,12.0,0.,12.0,0.,12.0
1986-01-25 18:37:18.860 ,7,0,0.,12.0,0.,12.0,0.,12.0,0.,12.0
1986-01-25 18:37:30.860 ,7,0,0.,12.0,0.,12.0,0.,12.0,0.,12.0
1986-01-25 18:37:42.860 ,7,0,0.,12.0,0.,12.0,0.,12.0,0.,12.0
1986-01-25 18:37:54.860 ,7,0,0.,12.0,0.,12.0,0.,12.0,0.,12.0
1986-01-25 18:38:06.860 ,7,0,0.,12.0,0.,12.0,0.,12.0,0.,12.0
1986-01-25 18:38:18.860 ,7,0,0.,12.0,0.,12.0,0.,12.0,0.,12.0
1986-01-25 18:38:30.860 ,6,0,0.,12.0,0.,12.0,0.,12.0,0.,12.0
1986-01-25 18:38:42.860 ,6,0,0.,12.0,0.,12.0,0.,12.0,0.,12.0
1986-01-25 18:38:54.860 ,6,0,0.,12.0,0.,12.0,0.,12.0,0.,12.0
1986-01-25 18:39:06.860 ,6,0,0.,12.0,1.,12.0,0.,12.0,0.,12.0
1986-01-25 18:39:18.860 ,5,0,0.,12.0,0.,12.0,0.,12.0,0.,12.0
1986-01-25 18:39:30.860 ,5,0,0.,12.0,0.,12.0,0.,12.0,0.,12.0
1986-01-25 18:39:42.860 ,5,0,0.,12.0,0.,12.0,0.,12.0,0.,12.0
1986-01-25 18:39:54.860 ,5,0,0.,12.0,0.,12.0,0.,12.0,0.,12.0
1986-01-25 18:40:06.860 ,4,0,0.,12.0,0.,12.0,0.,12.0,0.,12.0
1986-01-25 18:40:18.860 ,4,0,0.,12.0,0.,12.0,0.,12.0,0.,12.0
1986-01-25 18:40:30.860 ,4,0,0.,12.0,0.,12.0,0.,12.0,0.,12.0
1986-01-25 18:40:42.860 ,4,0,0.,12.0,0.,12.0,0.,12.0,0.,12.0
1986-01-25 18:40:54.860 ,3,0,0.,12.0,0.,12.0,0.,12.0,0.,12.0
1986-01-25 18:41:06.860 ,3,0,0.,12.0,0.,12.0,0.,12.0,0.,12.0
1986-01-25 18:41:18.860 ,3,0,0.,12.0,0.,12.0,0.,12.0,0.,12.0
1986-01-25 18:41:30.860 ,3,0,0.,12.0,0.,12.0,0.,12.0,0.,12.0
1986-01-25 18:41:42.860 ,2,0,0.,12.0,0.,12.0,0.,12.0,0.,12.0
1986-01-25 18:41:54.860 ,2,0,0.,12.0,0.,12.0,0.,12.0,0.,12.0
1986-01-25 18:42:06.860 ,2,0,0.,12.0,0.,12.0,0.,12.0,0.,12.0
1986-01-25 18:42:18.860 ,2,0,0.,12.0,0.,12.0,0.,12.0,0.,12.0
1986-01-25 18:42:30.860 ,1,0,0.,12.0,0.,12.0,0.,12.0,0.,12.0
1986-01-25 18:42:42.860 ,1,0,0.,12.0,0.,12.0,0.,12.0,0.,12.0
1986-01-25 18:42:54.860 ,1,0,0.,12.0,0.,12.0,0.,12.0,0.,12.0
1986-01-25 18:43:06.860 ,1,0,0.,12.0,0.,12.0,0.,12.0,0.,12.0
1986-01-25 18:43:18.860 ,0,0,0.,12.0,0.,12.0,0.,12.0,0.,12.0
1986-01-25 18:43:30.860 ,0,0,0.,12.0,0.,12.0,0.,12.0,0.,12.0
1986-01-25 18:43:42.860 ,0,0,0.,12.0,0.,12.0,0.,12.0,0.,12.0
1986-01-25 18:43:54.860 ,0,0,0.,12.0,0.,12.0,0.,12.0,0.,12.0
1986-01-25 18:44:06.860 ,0,0,0.,12.0,0.,12.0,0.,12.0,0.,12.0
1986-01-25 18:44:18.860 ,0,0,0.,12.0,0.,12.0,0.,12.0,0.,12.0
1986-01-25 18:44:30.860 ,0,0,0.,12.0,0.,12.0,0.,12.0,0.,12.0
1986-01-25 18:44:42.860 ,0,0,0.,12.0,0.,12.0,0.,12.0,0.,12.0
1986-01-25 18:44:54.860 ,1,0,0.,12.0,0.,12.0,0.,12.0,0.,12.0
1986-01-25 18:45:06.860 ,1,0,0.,12.0,0.,12.0,0.,12.0,0.,12.0
1986-01-25 18:45:18.860 ,1,0,0.,12.0,0.,12.0,0.,12.0,0.,12.0
1986-01-25 18:45:30.860 ,1,0,0.,12.0,0.,12.0,0.,12.0,0.,12.0
1986-01-25 18:45:42.860 ,2,0,0.,12.0,0.,12.0,0.,12.0,0.,12.0
1986-01-25 18:45:54.860 ,2,0,0.,12.0,0.,12.0,0.,12.0,0.,12.0
1986-01-25 18:46:06.860 ,2,0,0.,12.0,0.,12.0,0.,12.0,0.,12.0
1986-01-25 18:46:18.860 ,2,0,0.,12.0,0.,12.0,0.,12.0,0.,12.0
1986-01-25 18:46:30.860 ,3,0,0.,12.0,0.,12.0,0.,12.0,0.,12.0
1986-01-25 18:46:42.860 ,3,0,0.,12.0,0.,12.0,0.,12.0,0.,12.0
1986-01-25 18:46:54.860 ,3,0,0.,12.0,0.,12.0,0.,12.0,0.,12.0
1986-01-25 18:47:06.860 ,3,0,0.,12.0,0.,12.0,0.,12.0,0.,12.0
1986-01-25 18:47:18.860 ,4,0,0.,12.0,0.,12.0,0.,12.0,0.,12.0
1986-01-25 18:47:30.860 ,4,0,0.,12.0,0.,12.0,0.,12.0,0.,12.0
1986-01-25 18:47:42.860 ,4,0,0.,12.0,0.,12.0,0.,12.0,0.,12.0
1986-01-25 18:47:54.860 ,4,0,0.,12.0,0.,12.0,0.,12.0,0.,12.0
1986-01-25 18:48:06.860 ,5,0,0.,12.0,0.,12.0,0.,12.0,0.,12.0
1986-01-25 18:48:18.860 ,5,0,0.,12.0,0.,12.0,0.,12.0,0.,12.0
1986-01-25 18:48:30.860 ,5,0,0.,12.0,0.,12.0,0.,12.0,0.,12.0
1986-01-25 18:48:42.860 ,5,0,0.,12.0,0.,12.0,0.,12.0,0.,12.0
1986-01-25 18:48:54.860 ,6,0,0.,12.0,0.,12.0,0.,12.0,0.,12.0
1986-01-25 18:49:06.860 ,6,0,0.,12.0,0.,12.0,0.,12.0,0.,12.0
1986-01-25 18:49:18.860 ,6,0,0.,12.0,0.,12.0,0.,12.0,0.,12.0
1986-01-25 18:49:30.860 ,6,0,0.,12.0,0.,12.0,0.,12.0,0.,12.0
1986-01-25 18:49:42.860 ,7,0,0.,12.0,0.,12.0,0.,12.0,0.,12.0
1986-01-25 18:49:54.860 ,7,0,0.,12.0,0.,12.0,0.,12.0,0.,12.0
1986-01-25 18:50:06.860 ,7,0,0.,12.0,0.,12.0,0.,12.0,0.,12.0
1986-01-25 18:50:18.860 ,7,0,0.,12.0,0.,12.0,0.,12.0,0.,12.0
1986-01-25 18:50:30.860 ,7,0,0.,12.0,0.,12.0,0.,12.0,0.,12.0
1986-01-25 18:50:42.860 ,7,0,0.,12.0,0.,12.0,0.,12.0,0.,12.0
1986-01-25 18:50:54.860 ,7,0,0.,12.0,0.,12.0,0.,12.0,0.,12.0
1986-01-25 18:51:06.860 ,7,0,0.,12.0,0.,12.0,0.,12.0,0.,12.0
1986-01-25 18:51:18.860 ,6,0,0.,12.0,0.,12.0,0.,12.0,0.,12.0
1986-01-25 18:51:30.860 ,6,0,0.,12.0,0.,12.0,0.,12.0,0.,12.0
1986-01-25 18:51:42.860 ,6,0,0.,12.0,0.,12.0,0.,12.0,0.,12.0
1986-01-25 18:51:54.860 ,6,0,0.,12.0,0.,12.0,0.,12.0,0.,12.0
1986-01-25 18:52:06.860 ,5,0,0.,12.0,0.,12.0,0.,12.0,0.,12.0
1986-01-25 18:52:18.860 ,5,0,0.,12.0,0.,12.0,0.,12.0,0.,12.0
1986-01-25 18:52:30.860 ,5,0,0.,12.0,0.,12.0,0.,12.0,0.,12.0
1986-01-25 18:52:42.860 ,5,0,0.,12.0,0.,12.0,0.,12.0,0.,12.0
1986-01-25 18:52:54.860 ,4,0,0.,12.0,0.,12.0,0.,12.0,0.,12.0
1986-01-25 18:53:06.860 ,4,0,0.,12.0,0.,12.0,0.,12.0,0.,12.0
1986-01-25 18:53:18.860 ,4,0,0.,12.0,0.,12.0,0.,12.0,0.,12.0
1986-01-25 18:53:30.860 ,4,0,0.,12.0,0.,12.0,0.,12.0,0.,12.0
1986-01-25 18:53:42.860 ,3,0,0.,12.0,0.,12.0,0.,12.0,0.,12.0
1986-01-25 18:53:54.860 ,3,0,0.,12.0,0.,12.0,0.,12.0,0.,12.0
1986-01-25 18:54:06.860 ,3,0,0.,12.0,0.,12.0,0.,12.0,0.,12.0
1986-01-25 18:54:18.860 ,3,0,0.,12.0,0.,12.0,0.,12.0,0.,12.0
1986-01-25 18:54:30.860 ,2,0,0.,12.0,0.,12.0,0.,12.0,0.,12.0
1986-01-25 18:54:42.860 ,2,0,0.,12.0,0.,12.0,0.,12.0,0.,12.0
1986-01-25 18:54:54.860 ,2,0,0.,12.0,0.,12.0,0.,12.0,0.,12.0
1986-01-25 18:55:06.860 ,2,0,0.,12.0,0.,12.0,0.,12.0,0.,12.0
1986-01-25 18:55:18.860 ,1,0,0.,12.0,0.,12.0,0.,12.0,0.,12.0
1986-01-25 18:55:30.860 ,1,0,0.,12.0,0.,12.0,0.,12.0,0.,12.0
1986-01-25 18:55:42.860 ,1,0,0.,12.0,0.,12.0,0.,12.0,0.,12.0
1986-01-25 18:55:54.860 ,1,0,0.,12.0,0.,12.0,0.,12.0,0.,12.0
1986-01-25 18:56:06.860 ,0,0,0.,12.0,0.,12.0,0.,12.0,0.,12.0
1986-01-25 18:56:18.860 ,0,0,0.,12.0,0.,12.0,0.,12.0,0.,12.0
1986-01-25 18:56:30.860 ,0,0,0.,12.0,0.,12.0,0.,12.0,0.,12.0
1986-01-25 18:56:42.860 ,0,0,0.,12.0,0.,12.0,0.,12.0,0.,12.0
1986-01-25 18:56:54.860 ,0,0,0.,12.0,0.,12.0,0.,12.0,0.,12.0
1986-01-25 18:57:06.860 ,0,0,0.,12.0,0.,12.0,0.,12.0,0.,12.0
1986-01-25 18:57:18.860 ,0,0,0.,12.0,0.,12.0,0.,12.0,0.,12.0
1986-01-25 18:57:30.860 ,0,0,0.,12.0,0.,12.0,0.,12.0,0.,12.0
1986-01-25 18:57:42.860 ,1,0,0.,12.0,0.,12.0,0.,12.0,0.,12.0
1986-01-25 18:57:54.860 ,1,0,0.,12.0,0.,12.0,0.,12.0,0.,12.0
1986-01-25 18:58:06.860 ,1,0,0.,12.0,0.,12.0,0.,12.0,0.,12.0
1986-01-25 18:58:18.860 ,1,0,0.,12.0,0.,12.0,0.,12.0,0.,12.0
1986-01-25 18:58:30.860 ,2,0,0.,12.0,0.,12.0,0.,12.0,0.,12.0
1986-01-25 18:58:42.860 ,2,0,0.,12.0,0.,12.0,0.,12.0,0.,12.0
1986-01-25 18:58:54.860 ,2,0,0.,12.0,0.,12.0,0.,12.0,0.,12.0
1986-01-25 18:59:06.860 ,2,0,0.,12.0,0.,12.0,0.,12.0,0.,12.0
1986-01-25 18:59:18.860 ,3,0,0.,12.0,0.,12.0,0.,12.0,0.,12.0
1986-01-25 18:59:30.860 ,3,0,0.,12.0,0.,12.0,0.,12.0,0.,12.0
1986-01-25 18:59:42.860 ,3,0,0.,12.0,0.,12.0,0.,12.0,0.,12.0
1986-01-25 18:59:54.860 ,3,0,0.,12.0,0.,12.0,0.,12.0,0.,12.0
1986-01-25 19:00:06.860 ,4,0,0.,12.0,0.,12.0,0.,12.0,0.,12.0
1986-01-25 19:00:18.860 ,4,0,0.,12.0,0.,12.0,0.,12.0,0.,12.0
1986-01-25 19:00:30.860 ,4,0,0.,12.0,0.,12.0,0.,12.0,0.,12.0
1986-01-25 19:00:42.860 ,4,0,0.,12.0,0.,12.0,0.,12.0,0.,12.0
1986-01-25 19:00:54.860 ,5,0,0.,12.0,0.,12.0,0.,12.0,0.,12.0
1986-01-25 19:01:06.860 ,5,0,0.,12.0,0.,12.0,0.,12.0,0.,12.0
1986-01-25 19:01:18.860 ,5,0,0.,12.0,0.,12.0,0.,12.0,0.,12.0
1986-01-25 19:01:30.860 ,5,0,0.,12.0,0.,12.0,0.,12.0,0.,12.0
1986-01-25 19:01:42.860 ,6,0,0.,12.0,0.,12.0,0.,12.0,0.,12.0
1986-01-25 19:01:54.860 ,6,0,0.,12.0,0.,12.0,0.,12.0,0.,12.0
1986-01-25 19:02:06.860 ,6,0,0.,12.0,0.,12.0,0.,12.0,0.,12.0
1986-01-25 19:02:18.860 ,6,0,0.,12.0,0.,12.0,0.,12.0,0.,12.0
1986-01-25 19:02:30.860 ,7,0,0.,12.0,0.,12.0,0.,12.0,0.,12.0
1986-01-25 19:02:42.860 ,7,0,0.,12.0,0.,12.0,0.,12.0,0.,12.0
1986-01-25 19:02:54.860 ,7,0,0.,12.0,0.,12.0,0.,12.0,0.,12.0
1986-01-25 19:03:06.860 ,7,0,0.,12.0,0.,12.0,0.,12.0,0.,12.0
1986-01-25 19:03:18.860 ,7,0,0.,12.0,0.,12.0,0.,12.0,0.,12.0
1986-01-25 19:03:30.860 ,7,0,0.,12.0,0.,12.0,0.,12.0,0.,12.0
1986-01-25 19:03:42.860 ,7,0,0.,12.0,0.,12.0,0.,12.0,0.,12.0
1986-01-25 19:03:54.860 ,7,0,0.,12.0,0.,12.0,0.,12.0,0.,12.0
1986-01-25 19:04:06.860 ,6,0,0.,12.0,0.,12.0,0.,12.0,0.,12.0
1986-01-25 19:04:18.860 ,6,0,0.,12.0,0.,12.0,0.,12.0,0.,12.0
1986-01-25 19:04:30.860 ,6,0,0.,12.0,0.,12.0,0.,12.0,0.,12.0
1986-01-25 19:04:42.860 ,6,0,0.,12.0,0.,12.0,0.,12.0,0.,12.0
1986-01-25 19:04:54.860 ,5,0,0.,12.0,0.,12.0,0.,12.0,0.,12.0
1986-01-25 19:05:06.860 ,5,0,0.,12.0,0.,12.0,0.,12.0,0.,12.0
1986-01-25 19:05:18.860 ,5,0,0.,12.0,1.,12.0,0.,12.0,0.,12.0
1986-01-25 19:05:30.860 ,5,0,0.,12.0,0.,12.0,0.,12.0,0.,12.0
1986-01-25 19:05:42.860 ,4,0,0.,12.0,0.,12.0,0.,12.0,0.,12.0
1986-01-25 19:05:54.860 ,4,0,0.,12.0,0.,12.0,0.,12.0,0.,12.0
1986-01-25 19:06:06.860 ,4,0,0.,12.0,0.,12.0,0.,12.0,0.,12.0
1986-01-25 19:06:18.860 ,4,0,0.,12.0,0.,12.0,0.,12.0,0.,12.0
1986-01-25 19:06:30.860 ,3,0,0.,12.0,0.,12.0,0.,12.0,0.,12.0
1986-01-25 19:06:42.860 ,3,0,0.,12.0,0.,12.0,0.,12.0,0.,12.0
1986-01-25 19:06:54.860 ,3,0,0.,12.0,0.,12.0,0.,12.0,0.,12.0
1986-01-25 19:07:06.860 ,3,0,0.,12.0,0.,12.0,0.,12.0,0.,12.0
1986-01-25 19:07:18.860 ,2,0,0.,12.0,0.,12.0,0.,12.0,0.,12.0
1986-01-25 19:07:30.860 ,2,0,0.,12.0,0.,12.0,0.,12.0,0.,12.0
1986-01-25 19:07:42.860 ,2,0,0.,12.0,0.,12.0,0.,12.0,0.,12.0
1986-01-25 19:07:54.860 ,2,0,0.,12.0,0.,12.0,0.,12.0,0.,12.0
1986-01-25 19:08:06.860 ,1,0,0.,12.0,0.,12.0,0.,12.0,0.,12.0
1986-01-25 19:08:18.860 ,1,0,0.,12.0,0.,12.0,0.,12.0,0.,12.0
1986-01-25 19:08:30.860 ,1,0,0.,12.0,0.,12.0,0.,12.0,0.,12.0
1986-01-25 19:08:42.860 ,1,0,0.,12.0,0.,12.0,0.,12.0,0.,12.0
1986-01-25 19:08:54.860 ,0,0,0.,12.0,0.,12.0,0.,12.0,0.,12.0
1986-01-25 19:09:06.860 ,0,0,0.,12.0,0.,12.0,0.,12.0,0.,12.0
1986-01-25 19:09:18.860 ,0,0,0.,12.0,0.,12.0,0.,12.0,0.,12.0
1986-01-25 19:09:30.860 ,0,0,0.,12.0,0.,12.0,0.,12.0,0.,12.0
1986-01-25 19:09:42.860 ,0,0,0.,12.0,0.,12.0,0.,12.0,0.,12.0
1986-01-25 19:09:54.860 ,0,0,0.,12.0,0.,12.0,0.,12.0,0.,12.0
1986-01-25 19:10:06.860 ,0,0,0.,12.0,0.,12.0,0.,12.0,0.,12.0
1986-01-25 19:10:18.860 ,0,0,0.,12.0,0.,12.0,0.,12.0,0.,12.0
1986-01-25 19:10:30.860 ,1,0,0.,12.0,0.,12.0,0.,12.0,0.,12.0
1986-01-25 19:10:42.860 ,1,0,0.,12.0,0.,12.0,0.,12.0,0.,12.0
1986-01-25 19:10:54.860 ,1,0,0.,12.0,0.,12.0,0.,12.0,0.,12.0
1986-01-25 19:11:06.860 ,1,0,0.,12.0,0.,12.0,0.,12.0,0.,12.0
1986-01-25 19:11:18.860 ,2,0,0.,12.0,0.,12.0,0.,12.0,0.,12.0
1986-01-25 19:11:30.860 ,2,0,0.,12.0,0.,12.0,0.,12.0,0.,12.0
1986-01-25 19:11:42.860 ,2,0,0.,12.0,0.,12.0,0.,12.0,0.,12.0
1986-01-25 19:11:54.860 ,2,0,0.,12.0,0.,12.0,0.,12.0,0.,12.0
1986-01-25 19:12:06.860 ,3,0,0.,12.0,0.,12.0,0.,12.0,0.,12.0
1986-01-25 19:12:18.860 ,3,0,0.,12.0,0.,12.0,0.,12.0,0.,12.0
1986-01-25 19:12:30.860 ,3,0,0.,12.0,0.,12.0,0.,12.0,0.,12.0
1986-01-25 19:12:42.860 ,3,0,0.,12.0,0.,12.0,0.,12.0,0.,12.0
1986-01-25 19:12:54.860 ,4,0,0.,12.0,0.,12.0,0.,12.0,0.,12.0
1986-01-25 19:13:06.860 ,4,0,0.,12.0,0.,12.0,0.,12.0,0.,12.0
1986-01-25 19:13:18.860 ,4,0,0.,12.0,0.,12.0,0.,12.0,0.,12.0
1986-01-25 19:13:30.860 ,4,0,0.,12.0,0.,12.0,0.,12.0,0.,12.0
1986-01-25 19:13:42.860 ,5,0,0.,12.0,0.,12.0,0.,12.0,0.,12.0
1986-01-25 19:13:54.860 ,5,0,0.,12.0,0.,12.0,0.,12.0,0.,12.0
1986-01-25 19:14:06.860 ,5,0,0.,12.0,0.,12.0,0.,12.0,0.,12.0
1986-01-25 19:14:18.860 ,5,0,0.,12.0,0.,12.0,0.,12.0,0.,12.0
1986-01-25 19:14:30.860 ,6,0,0.,12.0,0.,12.0,0.,12.0,0.,12.0
1986-01-25 19:14:42.860 ,6,0,0.,12.0,0.,12.0,0.,12.0,0.,12.0
1986-01-25 19:14:54.860 ,6,0,0.,12.0,0.,12.0,0.,12.0,0.,12.0
1986-01-25 19:15:06.860 ,6,0,0.,12.0,0.,12.0,0.,12.0,0.,12.0
1986-01-25 19:15:18.860 ,7,0,0.,12.0,0.,12.0,0.,12.0,0.,12.0
1986-01-25 19:15:30.860 ,7,0,0.,12.0,0.,12.0,0.,12.0,0.,12.0
1986-01-25 19:15:42.860 ,7,0,0.,12.0,0.,12.0,0.,12.0,0.,12.0
1986-01-25 19:15:54.860 ,7,0,0.,12.0,0.,12.0,0.,12.0,0.,12.0
1986-01-25 19:16:06.860 ,7,0,0.,12.0,0.,12.0,0.,12.0,0.,12.0
1986-01-25 19:16:18.860 ,7,0,0.,12.0,0.,12.0,0.,12.0,0.,12.0
1986-01-25 19:16:30.860 ,7,0,0.,12.0,0.,12.0,0.,12.0,0.,12.0
1986-01-25 19:16:42.860 ,7,0,0.,12.0,0.,12.0,0.,12.0,0.,12.0
1986-01-25 19:16:54.860 ,6,0,0.,12.0,0.,12.0,0.,12.0,0.,12.0
1986-01-25 19:17:06.860 ,6,0,0.,12.0,0.,12.0,0.,12.0,0.,12.0
1986-01-25 19:17:18.860 ,6,0,0.,12.0,0.,12.0,0.,12.0,0.,12.0
1986-01-25 19:17:30.860 ,6,0,0.,12.0,0.,12.0,0.,12.0,0.,12.0